Tracking 34403 objects as of 13-Jun-2026
HD Live streaming from Space Station
objects crossing your sky now

DELTA 1 DEB

Track DELTA 1 DEB now!
10-day predictions


NORAD ID: 12540
Int'l Code: 1976-077DV
Perigee: 1,452.3 km
Apogee: 1,515.2 km
Inclination: 102.4 °
Period: 115.5 minutes
Semi major axis: 7854 km
RCS: 0.0402 m2 (small)
Launch date: July 29, 1976
Source: United States (US)
Launch site: AIR FORCE WESTERN TEST RANGE (AFWTR)

Note: This is SATELLITE DEBRIS
Your satellite tracking list
Your tracking list is empty




NASA's NSSDC Master Catalog

Two Line Element Set (TLE):
1 12540U 76077DV  26158.30647183 -.00000265  00000-0 -14770-2 0  9999
2 12540 102.4406 279.8655 0040045  14.3443  46.4066 12.47098597 99517
Source of the keplerian elements: AFSPC